Weather in Tafi del Valle

Argentina     26°51′55″S   65°41′28″W
temp.,
°C
wind,
m/s
gust,
m/s
humid.,
%
clouds,
%
prec.,
mm/h
press.,
hPa
HPBL,
m
27 february, sat
sat2700:00+11se1195100 1.7 1014165
03:00+10sse1294100 7.2 1014125
06:00+9nnw228899 4.9 101537
09:00+11nne227391 5.0 1016269
12:00+13e228265 1.6 1015570
15:00+13ene228379 5.8 1013583
18:00+11e339293 2.5 1011306
21:00+9e339691 2.8 1013171
28 february, sun
sun2800:00+9nne3492100 0.9 1015219
03:00+9nw2390100 2.9 1014147
06:00+7nnw349269 0.1 1013200
09:00+10nnw238137 0.1 1013306
12:00+13ne337923 0.1 1013577
15:00+11ne229461 1.1 1010243
18:00+11ene239197 1.8 1008305
21:00+9ne239177 2.3 1010188
1 march, mon
mon100:00+8nne239391 0.1 1012111
03:00+8nne239174 0.1 1010128
06:00+8n349446 0.1 1010142
09:00+10nnw338730 0.3 1011289
12:00+12nne238319 0.8 1010486
15:00+11ne229057 4.3 1008293
18:00+11e338783 3.8 1006442
21:00+8ne339273 4.6 1008158
2 march, tue
tue200:00+7ne239066 0.1 101193
03:00+7nnw239169 0.1 101099
06:00+7nne249498 0.6 1010194
09:00+9ne238968 0.7 1012393
12:00+11ne348692 0.5 1012507
15:00+11ne338696 1.9 1009465
18:00+11ene239199 1.2 1008328
21:00+9ene239797 2.1 1010168
3 march, wed
wed300:00+9ene239798 2.7 1013150
03:00+8nne249585 3.4 1013176
06:00+7n229734 0.3 1012145
09:00+9nw238923 0.6 1014337
12:00+12ne118041 0.6 1013566
15:00+12e118666 2.3 1012395
18:00+11ese018898 1.6 1010327
21:00+10wnw019498 2.4 101365